Location: Newark
(40.7119°N, 74.0097°W)
Time: 07:40:54
(UTC+00:00)

ISS - Pass Details

Date: 01 July 2021
Orbit: 419 x 421 km, 51.6° (Epoch: 04 August)

Event Time Altitude Azimuth Distance (km) Brightness Sun altitude
Exits shadow 08:30:05 - 273° (W) 1,757 -1.0 -9.7°
Reaches altitude 10° 08:30:49 10° 279° (W) 1,499 -1.3 -9.6°
Maximum altitude 08:33:40 25° 336° (NNW) 893 -1.9 -9.2°
Drops below altitude 10° 08:36:32 10° 35° (NE) 1,503 0.5 -8.8°
Sets 08:38:53 0° 49° (NE) 2,369 2.6 -8.5°
